GW0795 Weather Reports


time (UTC)temp
F
wind
direction
speed
knots
gust
knots
rain 1hr
in
rain 24hr
in
rain mn
in
humidity
%
barometer
mb
20260504050507 68 43 0.0 0.0 0.00 0.00 0.00 47 1009.6
20260504045504 68 43 0.0 0.0 0.00 0.00 0.00 45 1009.7
20260504045006 68 43 0.0 0.0 0.00 0.00 0.00 45 1009.7
20260504044523 68 43 0.0 0.0 0.00 0.00 0.00 45 1009.7
20260504044009 69 43 0.0 0.0 0.00 0.00 0.00 44 1009.8
20260504043507 69 43 0.0 0.0 0.00 0.00 0.00 43 1009.6
20260504043018 69 74 0.0 0.9 0.00 0.00 0.00 43 1009.6
20260504042507 69 77 0.0 2.6 0.00 0.00 0.00 44 1009.6
20260504042007 69 14 0.9 2.6 0.00 0.00 0.00 44 1009.5
20260504041528 69 90 0.0 1.7 0.00 0.00 0.00 45 1009.5
20260504041008 70 53 0.0 1.7 0.00 0.00 0.00 44 1009.5
20260504040507 70 34 0.0 1.7 0.00 0.00 0.00 44 1009.5
20260504040025 70 61 0.9 2.6 0.00 0.00 0.00 44 1009.5
20260504035508 70 45 0.9 2.6 0.00 0.00 0.00 44 1009.4
20260504035008 70 5 0.9 2.6 0.00 0.00 0.00 46 1009.4
20260504034529 70 13 0.0 1.7 0.00 0.00 0.00 46 1009.3
20260504034004 70 16 0.0 1.7 0.00 0.00 0.00 46 1009.3
20260504033508 70 332 0.0 1.7 0.00 0.00 0.00 46 1009.2
20260504033017 71 332 0.0 2.6 0.00 0.00 0.00 44 1009.3
20260504032507 71 327 0.0 4.3 0.00 0.00 0.00 43 1009.3
20260504032012 72 5 1.7 7.0 0.00 0.00 0.00 42 1009.3
20260504031522 72 346 0.9 7.0 0.00 0.00 0.00 43 1009.3
20260504031007 72 15 1.7 6.1 0.00 0.00 0.00 42 1009.3
20260504030510 72 352 2.6 3.5 0.00 0.00 0.00 42 1009.2
20260504030037 73 34 0.9 5.2 0.00 0.00 0.00 42 1009.0
20260504025509 73 9 1.7 5.2 0.00 0.00 0.00 42 1009.0
20260504025010 73 346 1.7 6.1 0.00 0.00 0.00 41 1009.1
20260504024525 74 34 2.6 6.1 0.00 0.00 0.00 40 1009.0
20260504024006 74 342 1.7 4.3 0.00 0.00 0.00 40 1009.0
20260504023506 74 9 1.7 8.7 0.00 0.00 0.00 39 1009.0
20260504023031 75 350 2.6 9.6 0.00 0.00 0.00 39 1009.0
20260504022505 75 341 2.6 9.6 0.00 0.00 0.00 39 1009.0
20260504022007 75 352 1.7 8.7 0.00 0.00 0.00 40 1009.0
20260504021517 76 5 2.6 7.0 0.00 0.00 0.00 40 1009.0
20260504021008 76 347 0.9 7.0 0.00 0.00 0.00 40 1009.0
20260504020508 76 59 1.7 6.1 0.00 0.00 0.00 40 1009.0
20260504020022 76 5 0.9 7.8 0.00 0.00 0.00 40 1009.0
20260504015508 76 321 2.6 8.7 0.00 0.00 0.00 39 1009.1
20260504015011 77 319 3.5 8.7 0.00 0.00 0.00 39 1009.1
20260504014508 77 57 2.6 7.8 0.00 0.00 0.00 39 1009.2
20260504014003 77 307 1.7 7.0 0.00 0.00 0.00 39 1009.1
20260504013508 77 342 2.6 7.0 0.00 0.00 0.00 39 1009.1
20260504013010 78 332 2.6 7.0 0.00 0.00 0.00 38 1009.2
20260504012508 78 336 2.6 9.6 0.00 0.00 0.00 38 1009.2
20260504012001 78 352 2.6 9.6 0.00 0.00 0.00 39 1009.3
20260504011503 78 9 0.9 5.2 0.00 0.00 0.00 38 1009.4
20260504011000 78 306 1.7 5.2 0.00 0.00 0.00 39 1009.4
20260504010503 78 318 0.9 3.5 0.00 0.00 0.00 38 1009.4
20260504010003 78 342 0.9 7.0 0.00 0.00 0.00 38 1009.5
20260504005504 78 304 1.7 7.0 0.00 0.00 0.00 38 1009.5
20260504005004 78 342 2.6 6.1 0.00 0.00 0.00 38 1009.6
20260504004503 78 279 1.7 3.5 0.00 0.00 0.00 39 1009.7
20260504004006 79 333 1.7 4.3 0.00 0.00 0.00 39 1009.7
20260504003506 79 269 1.7 4.3 0.00 0.00 0.00 39 1009.8
20260504003008 79 275 1.7 7.0 0.00 0.00 0.00 38 1009.9
20260504002505 79 5 3.5 7.0 0.00 0.00 0.00 38 1009.9
20260504002004 79 254 1.7 6.1 0.00 0.00 0.00 37 1009.9
20260504001508 79 317 1.7 7.0 0.00 0.00 0.00 39 1010.0
20260504001004 79 209 3.5 7.0 0.00 0.00 0.00 37 1010.0
20260504000503 79 352 1.7 7.0 0.00 0.00 0.00 39 1010.1
20260504000004 79 287 0.9 7.0 0.00 0.00 0.00 39 1010.2
20260503235504 79 352 1.7 5.2 0.00 0.00 0.00 39 1010.2
20260503235004 79 342 1.7 6.1 0.00 0.00 0.00 40 1010.3
20260503234505 79 352 3.5 7.8 0.00 0.00 0.00 38 1010.3
20260503234003 79 298 1.7 7.8 0.00 0.00 0.00 38 1010.3
20260503233505 79 281 1.7 4.3 0.00 0.00 0.00 39 1010.4
20260503233006 79 291 1.7 7.0 0.00 0.00 0.00 38 1010.5
20260503232504 79 346 4.3 7.0 0.00 0.00 0.00 38 1010.6
20260503232004 79 319 2.6 7.8 0.00 0.00 0.00 38 1010.6
20260503231511 78 19 2.6 9.6 0.00 0.00 0.00 39 1010.6
20260503231008 78 50 3.5 9.6 0.00 0.00 0.00 39 1010.7
20260503230510 78 9 3.5 7.8 0.00 0.00 0.00 39 1010.8
20260503230012 78 284 2.6 8.7 0.00 0.00 0.00 40 1010.9
20260503225503 78 293 1.7 7.8 0.00 0.00 0.00 41 1010.9
20260503225003 78 9 3.5 7.8 0.00 0.00 0.00 39 1011.1
20260503224503 78 9 3.5 7.8 0.00 0.00 0.00 40 1011.1
20260503224001 79 348 4.3 7.8 0.00 0.00 0.00 38 1011.1
20260503223505 79 303 2.6 6.1 0.00 0.00 0.00 39 1011.2
20260503223006 78 275 1.7 6.1 0.00 0.00 0.00 39 1011.2
20260503222505 78 352 1.7 6.1 0.00 0.00 0.00 38 1011.3
20260503222004 78 333 1.7 5.2 0.00 0.00 0.00 40 1011.4
20260503221508 78 255 1.7 7.8 0.00 0.00 0.00 40 1011.5
20260503221013 77 290 2.6 7.8 0.00 0.00 0.00 39 1011.6
20260503220507 77 262 0.9 5.2 0.00 0.00 0.00 40 1011.5
20260503220036 77 252 2.6 5.2 0.00 0.00 0.00 40 1011.6
20260503215507 77 200 2.6 7.8 0.00 0.00 0.00 41 1011.6
20260503215006 77 243 2.6 7.8 0.00 0.00 0.00 40 1011.7
20260503214515 77 294 1.7 7.0 0.00 0.00 0.00 40 1011.7
20260503214003 77 289 2.6 7.0 0.00 0.00 0.00 40 1011.8
20260503213503 77 300 3.5 7.0 0.00 0.00 0.00 40 1011.8
20260503213008 77 294 1.7 6.1 0.00 0.00 0.00 40 1011.9
20260503212504 78 309 2.6 7.0 0.00 0.00 0.00 41 1011.9
20260503212003 77 262 3.5 7.0 0.00 0.00 0.00 43 1012.0
20260503211507 77 352 2.6 7.0 0.00 0.00 0.00 41 1012.0
20260503211004 77 44 1.7 5.2 0.00 0.00 0.00 42 1012.0
20260503210506 77 123 2.6 7.0 0.00 0.00 0.00 42 1012.1
20260503210013 77 281 1.7 7.8 0.00 0.00 0.00 41 1012.1
20260503205507 77 340 3.5 7.8 0.00 0.00 0.00 41 1012.2
20260503205008 76 352 3.5 7.0 0.00 0.00 0.00 42 1012.2
20260503204516 77 308 3.5 7.0 0.00 0.00 0.00 40 1012.2
20260503204009 78 300 1.7 7.0 0.00 0.00 0.00 43 1012.3
20260503203506 77 352 2.6 7.0 0.00 0.00 0.00 43 1012.4
20260503203027 77 69 2.6 7.0 0.00 0.00 0.00 42 1012.4
20260503202504 77 299 2.6 7.0 0.00 0.00 0.00 43 1012.4
20260503202004 77 15 1.7 7.0 0.00 0.00 0.00 44 1012.5
20260503201508 76 18 2.6 7.0 0.00 0.00 0.00 43 1012.6
20260503201006 76 271 1.7 7.0 0.00 0.00 0.00 46 1012.6
20260503200503 75 298 2.6 7.0 0.00 0.00 0.00 45 1012.6
20260503200011 75 39 1.7 7.0 0.00 0.00 0.00 47 1012.8
20260503195505 76 46 2.6 6.1 0.00 0.00 0.00 46 1012.8
20260503195007 76 325 1.7 6.1 0.00 0.00 0.00 47 1012.8
20260503194517 75 28 3.5 6.1 0.00 0.00 0.00 46 1012.8
20260503194007 74 306 3.5 7.0 0.00 0.00 0.00 46 1013.0
20260503193508 74 266 2.6 7.0 0.00 0.00 0.00 47 1013.1
20260503193021 74 302 2.6 5.2 0.00 0.00 0.00 46 1013.1
20260503192506 74 339 2.6 7.8 0.00 0.00 0.00 47 1013.1
20260503192007 74 17 3.5 7.8 0.00 0.00 0.00 47 1013.2
20260503191521 74 266 1.7 7.0 0.00 0.00 0.00 49 1013.2
20260503191007 74 9 1.7 6.1 0.00 0.00 0.00 48 1013.3
20260503190504 74 360 2.6 6.1 0.00 0.00 0.00 48 1013.4
20260503190007 75 245 0.9 7.0 0.00 0.00 0.00 47 1013.5
20260503185503 74 288 1.7 7.0 0.00 0.00 0.00 50 1013.5
20260503185004 74 9 0.9 7.0 0.00 0.00 0.00 48 1013.5
20260503184514 74 29 3.5 7.0 0.00 0.00 0.00 47 1013.6
20260503184004 73 279 0.9 7.0 0.00 0.00 0.00 50 1013.7
20260503183507 73 5 2.6 7.8 0.00 0.00 0.00 48 1013.8
20260503183034 73 9 2.6 8.7 0.00 0.00 0.00 50 1013.8
20260503182507 72 5 2.6 8.7 0.00 0.00 0.00 49 1013.8
20260503182011 72 16 2.6 7.8 0.00 0.00 0.00 50 1013.8
20260503181524 72 81 3.5 7.8 0.00 0.00 0.00 50 1013.9
20260503181007 72 46 1.7 5.2 0.00 0.00 0.00 52 1013.9
20260503180508 71 32 2.6 6.1 0.00 0.00 0.00 53 1013.9
20260503180024 72 63 2.6 8.7 0.00 0.00 0.00 53 1013.8
20260503175506 72 28 1.7 8.7 0.00 0.00 0.00 52 1013.9
20260503175004 71 5 2.6 7.8 0.00 0.00 0.00 54 1013.9
20260503174513 71 30 2.6 7.8 0.00 0.00 0.00 52 1013.9
20260503174008 70 303 2.6 7.8 0.00 0.00 0.00 53 1013.9
20260503173510 70 53 1.7 5.2 0.00 0.00 0.00 53 1014.0
20260503173018 70 336 2.6 4.3 0.00 0.00 0.00 53 1014.0
20260503172506 70 55 1.7 4.3 0.00 0.00 0.00 54 1014.1
20260503172007 70 38 1.7 5.2 0.00 0.00 0.00 54 1014.1
20260503171520 69 69 2.6 5.2 0.00 0.00 0.00 53 1014.1
20260503171006 69 348 2.6 5.2 0.00 0.00 0.00 54 1014.1
20260503170511 69 21 1.7 7.0 0.00 0.00 0.00 54 1014.1
20260503151004 63 30 2.6 5.2 0.00 0.00 0.00 61 1014.2
20260503150503 63 352 1.7 4.3 0.00 0.00 0.00 62 1014.2
20260503131010 53 5 0.0 0.0 0.00 0.00 0.00 79 1014.2
20260503130506 53 5 0.0 0.0 0.00 0.00 0.00 79 1014.1
20260503110504 55 5 0.0 0.0 0.00 0.00 0.00 74 1014.2
20260503090510 56 53 0.0 0.0 0.00 0.00 0.00 69 1014.5
20260503081532 61 9 0.0 1.7 0.00 0.00 0.00 58 1014.6
20260503081010 61 9 0.0 1.7 0.00 0.00 0.00 56 1014.5
20260503080509 62 9 0.0 1.7 0.00 0.00 0.00 54 1014.5
20260503072507 63 51 0.9 2.6 0.00 0.00 0.00 52 1014.5
20260503072003 63 60 0.0 1.7 0.00 0.00 0.00 52 1014.5
20260503071507 63 27 0.9 1.7 0.00 0.00 0.00 51 1014.4
20260503071004 63 28 0.0 1.7 0.00 0.00 0.00 51 1014.4
20260503070505 64 331 0.0 1.7 0.00 0.00 0.00 51 1014.4
20260503055003 64 19 0.0 3.5 0.00 0.00 0.00 51 1014.3
20260503054513 64 9 1.7 3.5 0.00 0.00 0.00 51 1014.3
20260503054009 64 9 0.0 3.5 0.00 0.00 0.00 53 1014.2
20260503053506 64 19 0.9 2.6 0.00 0.00 0.00 54 1014.2
20260503053015 64 351 0.0 1.7 0.00 0.00 0.00 56 1014.3
20260503052506 64 352 0.0 1.7 0.00 0.00 0.00 56 1014.3
20260503052010 64 339 0.9 1.7 0.00 0.00 0.00 56 1014.2
20260503051519 64 350 0.0 1.7 0.00 0.00 0.00 58 1014.2
20260503051009 63 5 0.0 1.7 0.00 0.00 0.00 57 1014.3